Flag for United Kingdom Weather past 2 weeks in Wakefield, England, United Kingdom

Now
59 °F

Scattered clouds.


Feels Like: 56 °F
Forecast: 49 / 63 °F
Wind: 15 mph from Northwest

Location: Leeds And Bradford

Current Time: Jul 29, 2015 at 1:22:05 PM

Latest Report: Jul 29, 2015 at 12:50 PM


Visibility: N/A

Pressure: 29.83 "Hg

Humidity: 77%

Dew point: 52 °F

Location of WakefieldLocation

Historic Weather in Wakefield — Graph

°F

Wakefield temperature yesterday

Maximum temperature yesterday: 59 °F (at 3:50 PM)
Minimum temperature yesterday: 50 °F (at 1:20 AM)
Average temperature yesterday: 52 °F

Past Weeks' High & Low Weather Summary

 TemperatureHumidityPressure
High68 °F (Jul 16, 3:20 PM)100% (Jul 16, 3:50 AM)30.15 "Hg (Jul 16, 3:50 AM)
Low45 °F (Jul 24, 3:20 AM)49% (Jul 15, 5:20 PM)29.33 "Hg (Jul 26, 11:50 PM)
Average56 °F81%29.82 "Hg
* Reported Jul 14 11:20 AM — Jul 29 11:50 AM, Wakefield, Weather by CustomWeather, © 2015

Note: Actual official high and low records may vary slightly from our data, if they occured in-between our weather recording intervals... More about our weather records

Advertising

Wakefield weather history for previous 24 hours

 ConditionsComfort  
Time TempWeatherWind HumidityBarometerVisibility
11:50 AM
Wed, Jul 29
59 °FScattered clouds.12 mph77%29.80 "HgN/A
11:20 AM57 °FScattered clouds.13 mph72%29.80 "HgN/A
10:50 AM57 °FScattered clouds.10 mph72%29.80 "HgN/A
10:20 AM55 °FScattered clouds.14 mph72%29.77 "HgN/A
9:50 AM55 °FScattered clouds.9 mph77%29.77 "HgN/A
9:20 AM54 °FScattered clouds.12 mph77%29.77 "HgN/A
8:20 AM52 °FPassing clouds.12 mph82%29.77 "HgN/A
7:50 AM50 °FPassing clouds.10 mph88%29.74 "HgN/A
7:20 AM50 °FScattered clouds.9 mph88%29.74 "HgN/A
6:50 AM48 °FScattered clouds.8 mph94%29.74 "HgN/A
6:20 AM48 °FScattered clouds.7 mph94%29.74 "HgN/A
5:50 AM48 °FPassing clouds.7 mph94%29.71 "HgN/A
5:20 AM48 °FPassing clouds.7 mph94%29.71 "HgN/A
4:50 AM48 °FPassing clouds.8 mph94%29.71 "HgN/A
4:20 AM48 °FClear.8 mph94%29.71 "Hg10 mi
3:50 AM48 °FClear.6 mph94%29.71 "Hg10 mi
3:20 AM48 °FClear.8 mph94%29.71 "Hg10 mi
2:50 AM46 °FClear.8 mph100%29.71 "Hg10 mi
2:20 AM48 °FClear.9 mph94%29.71 "Hg10 mi
1:50 AM48 °FClear.13 mph94%29.68 "Hg10 mi
1:20 AM50 °FClear.14 mph88%29.68 "Hg10 mi
12:50 AM50 °FClear.10 mph94%29.68 "Hg10 mi
12:20 AM50 °FPassing clouds.9 mph94%29.68 "HgN/A
11:50 PM
Tue, Jul 28
50 °FPassing clouds.9 mph94%29.68 "HgN/A
10:20 PM50 °FPassing clouds.9 mph94%29.68 "HgN/A
9:50 PM50 °FPassing clouds.13 mph94%29.68 "HgN/A
9:20 PM50 °FPassing clouds.13 mph94%29.68 "HgN/A
8:50 PM52 °FScattered clouds.15 mph88%29.68 "HgN/A
8:20 PM52 °FScattered clouds.14 mph88%29.65 "HgN/A
7:20 PM54 °FSprinkles. Scattered clouds.17 mph88%29.65 "HgN/A
6:50 PM55 °FScattered clouds.17 mph82%29.65 "HgN/A
6:20 PM55 °FScattered clouds.15 mph82%29.65 "HgN/A
5:50 PM55 °FScattered clouds.17 mph82%29.65 "HgN/A
5:20 PM55 °FScattered clouds.15 mph82%29.65 "HgN/A
4:50 PM55 °FScattered clouds.15 mph82%29.65 "HgN/A
4:20 PM55 °FScattered clouds.21 mph82%29.65 "HgN/A
3:50 PM59 °FScattered clouds.16 mph77%29.62 "HgN/A
3:20 PM55 °FSprinkles. Scattered clouds.10 mph88%29.62 "HgN/A
2:50 PM55 °FScattered clouds.10 mph88%29.62 "HgN/A
2:20 PM54 °FSprinkles. Scattered clouds.9 mph94%29.62 "HgN/A
1:50 PM54 °FLight rain. Scattered clouds.12 mph94%29.62 "HgN/A
1:20 PM54 °FScattered showers. Scattered clouds.10 mph94%29.62 "HgN/A
Weather by CustomWeather, © 2015

See weather overviewHow to use our weather pages